contact:dominique.lefevre@mio.osupytheas.fr, maurice.libes@osupytheas.fr, didier.mallarino@osupytheas.fr
Project:EMSO http://www.emso-fr.org/EMSO-France
Depth: 2436.0 m
Title:EMSO Ligure Ouest : Data MII capteur MICROCAT
DateTime_Computer,Latitude,Longitude,Temperature,Conductivity,Pressure,DateTime_Instrument
DateTime_Computer,Latitude,Longitude,degC,S m-1,dbar,DateTime_Instrument
2022-10-06T00:03:01Z,42.805,6.029,13.3042,4.60075,2470.6,2022-10-06T02:04:55Z
2022-10-06T00:06:04Z,42.805,6.029,13.3042,4.60092,2470.614,2022-10-06T02:07:58Z
2022-10-06T00:09:07Z,42.805,6.029,13.3047,4.60107,2470.6,2022-10-06T02:11:01Z
2022-10-06T00:12:10Z,42.805,6.029,13.3064,4.60142,2470.591,2022-10-06T02:14:04Z
2022-10-06T00:15:13Z,42.805,6.029,13.3052,4.60118,2470.6,2022-10-06T02:17:07Z
2022-10-06T00:18:16Z,42.805,6.029,13.3055,4.60122,2470.637,2022-10-06T02:20:10Z
2022-10-06T00:21:19Z,42.805,6.029,13.3048,4.60118,2470.614,2022-10-06T02:23:14Z
2022-10-06T00:24:22Z,42.805,6.029,13.3091,4.60105,2470.6,2022-10-06T02:26:17Z
2022-10-06T00:27:26Z,42.805,6.029,13.3063,4.60079,2470.614,2022-10-06T02:29:20Z
2022-10-06T00:30:29Z,42.805,6.029,13.3047,4.60125,2470.624,2022-10-06T02:32:23Z
2022-10-06T00:33:32Z,42.805,6.029,13.3045,4.60121,2470.6,2022-10-06T02:35:26Z
2022-10-06T00:36:35Z,42.805,6.029,13.3067,4.60084,2470.614,2022-10-06T02:38:29Z
2022-10-06T00:39:38Z,42.805,6.029,13.3048,4.60119,2470.6,2022-10-06T02:41:32Z
2022-10-06T00:42:41Z,42.805,6.029,13.3033,4.60110,2470.577,2022-10-06T02:44:35Z
2022-10-06T00:45:44Z,42.805,6.029,13.3056,4.60077,2470.614,2022-10-06T02:47:39Z
2022-10-06T00:48:47Z,42.805,6.029,13.3045,4.60110,2470.614,2022-10-06T02:50:42Z
2022-10-06T00:51:51Z,42.805,6.029,13.3046,4.60093,2470.614,2022-10-06T02:53:45Z
2022-10-06T00:54:54Z,42.805,6.029,13.3039,4.60126,2470.614,2022-10-06T02:56:48Z
2022-10-06T00:57:57Z,42.805,6.029,13.3048,4.60095,2470.61,2022-10-06T02:59:51Z
2022-10-06T01:01:00Z,42.805,6.029,13.3042,4.60095,2470.614,2022-10-06T03:02:54Z
2022-10-06T01:04:03Z,42.805,6.029,13.3053,4.60101,2470.591,2022-10-06T03:05:57Z
2022-10-06T01:07:06Z,42.805,6.029,13.3029,4.60102,2470.6,2022-10-06T03:09:00Z
2022-10-06T01:10:09Z,42.805,6.029,13.3055,4.60104,2470.637,2022-10-06T03:12:03Z
2022-10-06T01:13:12Z,42.805,6.029,13.3084,4.60114,2470.624,2022-10-06T03:15:07Z
2022-10-06T01:16:15Z,42.805,6.029,13.3086,4.60113,2470.637,2022-10-06T03:18:10Z
2022-10-06T01:19:19Z,42.805,6.029,13.3101,4.60139,2470.6,2022-10-06T03:21:13Z
2022-10-06T01:22:22Z,42.805,6.029,13.3094,4.60125,2470.6,2022-10-06T03:24:16Z
2022-10-06T01:25:25Z,42.805,6.029,13.3096,4.60123,2470.614,2022-10-06T03:27:19Z
2022-10-06T01:28:28Z,42.805,6.029,13.3104,4.60125,2470.637,2022-10-06T03:30:22Z
2022-10-06T01:31:31Z,42.805,6.029,13.3091,4.60102,2470.614,2022-10-06T03:33:25Z
2022-10-06T01:34:34Z,42.805,6.029,13.3084,4.60114,2470.614,2022-10-06T03:36:28Z
2022-10-06T01:37:37Z,42.805,6.029,13.3076,4.60127,2470.637,2022-10-06T03:39:32Z
2022-10-06T01:40:40Z,42.805,6.029,13.3058,4.60140,2470.637,2022-10-06T03:42:35Z
2022-10-06T01:43:44Z,42.805,6.029,13.3085,4.60148,2470.61,2022-10-06T03:45:38Z
2022-10-06T01:46:47Z,42.805,6.029,13.3058,4.60172,2470.637,2022-10-06T03:48:41Z
2022-10-06T01:49:50Z,42.805,6.029,13.3048,4.60108,2470.614,2022-10-06T03:51:44Z
2022-10-06T01:52:53Z,42.805,6.029,13.3058,4.60150,2470.614,2022-10-06T03:54:47Z
2022-10-06T01:55:56Z,42.805,6.029,13.3089,4.60123,2470.614,2022-10-06T03:57:50Z
2022-10-06T01:58:59Z,42.805,6.029,13.3083,4.60102,2470.637,2022-10-06T04:00:53Z
2022-10-06T02:02:02Z,42.805,6.029,13.3037,4.60104,2470.6,2022-10-06T04:03:56Z
2022-10-06T02:05:05Z,42.805,6.029,13.3049,4.60127,2470.591,2022-10-06T04:07:00Z
2022-10-06T02:08:08Z,42.805,6.029,13.3081,4.60105,2470.624,2022-10-06T04:10:03Z
2022-10-06T02:11:12Z,42.805,6.029,13.3079,4.60156,2470.661,2022-10-06T04:13:06Z
2022-10-06T02:14:15Z,42.805,6.029,13.3040,4.60112,2470.646,2022-10-06T04:16:09Z
2022-10-06T02:17:18Z,42.805,6.029,13.3064,4.60134,2470.614,2022-10-06T04:19:12Z
2022-10-06T02:20:21Z,42.805,6.029,13.3066,4.60131,2470.637,2022-10-06T04:22:15Z
2022-10-06T02:23:24Z,42.805,6.029,13.3041,4.60122,2470.614,2022-10-06T04:25:18Z
2022-10-06T02:26:27Z,42.805,6.029,13.3061,4.60152,2470.646,2022-10-06T04:28:21Z
2022-10-06T02:29:30Z,42.805,6.029,13.3088,4.60154,2470.637,2022-10-06T04:31:25Z
2022-10-06T02:32:33Z,42.805,6.029,13.3082,4.60232,2470.633,2022-10-06T04:34:28Z
2022-10-06T02:35:37Z,42.805,6.029,13.3080,4.60170,2470.624,2022-10-06T04:37:31Z
2022-10-06T02:38:40Z,42.805,6.029,13.3070,4.60289,2470.624,2022-10-06T04:40:34Z
2022-10-06T02:41:43Z,42.805,6.029,13.3042,4.60150,2470.624,2022-10-06T04:43:37Z
2022-10-06T02:44:46Z,42.805,6.029,13.3058,4.60173,2470.67,2022-10-06T04:46:40Z
2022-10-06T02:47:49Z,42.805,6.029,13.3061,4.60158,2470.614,2022-10-06T04:49:43Z
2022-10-06T02:50:52Z,42.805,6.029,13.3076,4.60101,2470.646,2022-10-06T04:52:46Z
2022-10-06T02:53:55Z,42.805,6.029,13.3082,4.60133,2470.661,2022-10-06T04:55:49Z
2022-10-06T02:56:58Z,42.805,6.029,13.3089,4.60139,2470.624,2022-10-06T04:58:53Z
2022-10-06T03:00:01Z,42.805,6.029,13.3087,4.60152,2470.67,2022-10-06T05:01:56Z
2022-10-06T03:03:05Z,42.805,6.029,13.3083,4.60120,2470.646,2022-10-06T05:04:59Z
2022-10-06T03:06:08Z,42.805,6.029,13.3089,4.60107,2470.661,2022-10-06T05:08:02Z
2022-10-06T03:09:11Z,42.805,6.029,13.3087,4.60157,2470.661,2022-10-06T05:11:05Z
2022-10-06T03:12:14Z,42.805,6.029,13.3080,4.60138,2470.661,2022-10-06T05:14:08Z
2022-10-06T03:15:17Z,42.805,6.029,13.3071,4.60149,2470.684,2022-10-06T05:17:11Z
2022-10-06T03:18:20Z,42.805,6.029,13.3096,4.60135,2470.661,2022-10-06T05:20:14Z
2022-10-06T03:21:23Z,42.805,6.029,13.3096,4.60161,2470.661,2022-10-06T05:23:18Z
2022-10-06T03:24:26Z,42.805,6.029,13.3078,4.60130,2470.661,2022-10-06T05:26:21Z
2022-10-06T03:27:29Z,42.805,6.029,13.3091,4.60192,2470.661,2022-10-06T05:29:24Z
2022-10-06T03:30:33Z,42.805,6.029,13.3106,4.60162,2470.693,2022-10-06T05:32:27Z
2022-10-06T03:33:36Z,42.805,6.029,13.3091,4.60144,2470.684,2022-10-06T05:35:30Z
2022-10-06T03:36:39Z,42.805,6.029,13.3089,4.60186,2470.684,2022-10-06T05:38:33Z
2022-10-06T03:39:42Z,42.805,6.029,13.3106,4.60187,2470.684,2022-10-06T05:41:36Z
2022-10-06T03:42:45Z,42.805,6.029,13.3109,4.60218,2470.661,2022-10-06T05:44:39Z
2022-10-06T03:45:48Z,42.805,6.029,13.3089,4.60128,2470.661,2022-10-06T05:47:42Z
2022-10-06T03:48:51Z,42.805,6.029,13.3084,4.60126,2470.661,2022-10-06T05:50:46Z
2022-10-06T03:51:54Z,42.805,6.029,13.3094,4.60122,2470.684,2022-10-06T05:53:49Z
2022-10-06T03:54:58Z,42.805,6.029,13.3054,4.60124,2470.67,2022-10-06T05:56:52Z
2022-10-06T03:58:01Z,42.805,6.029,13.3041,4.60119,2470.684,2022-10-06T05:59:55Z
2022-10-06T04:01:04Z,42.805,6.029,13.3048,4.60097,2470.684,2022-10-06T06:02:58Z
2022-10-06T04:04:07Z,42.805,6.029,13.3054,4.60150,2470.684,2022-10-06T06:06:01Z
2022-10-06T04:07:10Z,42.805,6.029,13.3075,4.60107,2470.646,2022-10-06T06:09:04Z
2022-10-06T04:10:13Z,42.805,6.029,13.3081,4.60133,2470.67,2022-10-06T06:12:07Z
2022-10-06T04:13:16Z,42.805,6.029,13.3088,4.60129,2470.707,2022-10-06T06:15:10Z
2022-10-06T04:16:19Z,42.805,6.029,13.3060,4.60150,2470.67,2022-10-06T06:18:14Z
2022-10-06T04:19:22Z,42.805,6.029,13.3075,4.60165,2470.684,2022-10-06T06:21:17Z
2022-10-06T04:22:26Z,42.805,6.029,13.3026,4.60159,2470.661,2022-10-06T06:24:20Z
2022-10-06T04:25:29Z,42.805,6.029,13.3076,4.60128,2470.661,2022-10-06T06:27:23Z
2022-10-06T04:28:32Z,42.805,6.029,13.3075,4.60095,2470.661,2022-10-06T06:30:26Z
2022-10-06T04:31:35Z,42.805,6.029,13.3078,4.60129,2470.684,2022-10-06T06:33:29Z
2022-10-06T04:34:38Z,42.805,6.029,13.3082,4.60155,2470.661,2022-10-06T06:36:32Z
2022-10-06T04:37:41Z,42.805,6.029,13.3089,4.60132,2470.684,2022-10-06T06:39:35Z
2022-10-06T04:40:44Z,42.805,6.029,13.3089,4.60140,2470.646,2022-10-06T06:42:39Z
2022-10-06T04:43:47Z,42.805,6.029,13.3091,4.60079,2470.684,2022-10-06T06:45:42Z
2022-10-06T04:46:50Z,42.805,6.029,13.3089,4.60098,2470.707,2022-10-06T06:48:45Z
2022-10-06T04:49:54Z,42.805,6.029,13.3084,4.60107,2470.693,2022-10-06T06:51:48Z
2022-10-06T04:52:57Z,42.805,6.029,13.3076,4.60090,2470.67,2022-10-06T06:54:51Z
2022-10-06T04:56:00Z,42.805,6.029,13.3078,4.60135,2470.646,2022-10-06T06:57:54Z
2022-10-06T04:59:03Z,42.805,6.029,13.3054,4.60099,2470.67,2022-10-06T07:00:57Z
2022-10-06T05:02:06Z,42.805,6.029,13.3048,4.60115,2470.646,2022-10-06T07:04:00Z
2022-10-06T05:05:09Z,42.805,6.029,13.3050,4.60097,2470.693,2022-10-06T07:07:03Z
2022-10-06T05:08:12Z,42.805,6.029,13.3056,4.60113,2470.661,2022-10-06T07:10:07Z
2022-10-06T05:11:15Z,42.805,6.029,13.3063,4.60092,2470.661,2022-10-06T07:13:10Z
2022-10-06T05:14:19Z,42.805,6.029,13.3068,4.60110,2470.67,2022-10-06T07:16:13Z
2022-10-06T05:17:22Z,42.805,6.029,13.3065,4.60110,2470.67,2022-10-06T07:19:16Z
2022-10-06T05:20:25Z,42.805,6.029,13.3055,4.60157,2470.684,2022-10-06T07:22:19Z
2022-10-06T05:23:28Z,42.805,6.029,13.3041,4.60131,2470.693,2022-10-06T07:25:22Z
2022-10-06T05:26:31Z,42.805,6.029,13.3064,4.60114,2470.661,2022-10-06T07:28:25Z
2022-10-06T05:29:34Z,42.805,6.029,13.3080,4.60124,2470.637,2022-10-06T07:31:28Z
2022-10-06T05:32:37Z,42.805,6.029,13.3074,4.60164,2470.684,2022-10-06T07:34:32Z
2022-10-06T05:35:40Z,42.805,6.029,13.3070,4.60122,2470.661,2022-10-06T07:37:35Z
2022-10-06T05:38:43Z,42.805,6.029,13.3074,4.60119,2470.661,2022-10-06T07:40:38Z
2022-10-06T05:41:47Z,42.805,6.029,13.3080,4.60139,2470.684,2022-10-06T07:43:41Z
2022-10-06T05:44:50Z,42.805,6.029,13.3036,4.60102,2470.646,2022-10-06T07:46:44Z
2022-10-06T05:47:53Z,42.805,6.029,13.3089,4.60152,2470.661,2022-10-06T07:49:47Z
2022-10-06T05:50:56Z,42.805,6.029,13.3091,4.60113,2470.646,2022-10-06T07:52:50Z
2022-10-06T05:53:59Z,42.805,6.029,13.3084,4.60102,2470.661,2022-10-06T07:55:53Z
2022-10-06T05:57:02Z,42.805,6.029,13.3070,4.60125,2470.684,2022-10-06T07:58:56Z
2022-10-06T06:00:05Z,42.805,6.029,13.3085,4.60123,2470.67,2022-10-06T08:02:00Z
2022-10-06T06:03:08Z,42.805,6.029,13.3075,4.60103,2470.646,2022-10-06T08:05:03Z
2022-10-06T06:06:12Z,42.805,6.029,13.3061,4.60112,2470.646,2022-10-06T08:08:06Z
2022-10-06T06:09:15Z,42.805,6.029,13.3056,4.60110,2470.67,2022-10-06T08:11:09Z
2022-10-06T06:12:18Z,42.805,6.029,13.3070,4.60113,2470.646,2022-10-06T08:14:12Z
2022-10-06T06:15:21Z,42.805,6.029,13.3082,4.60126,2470.684,2022-10-06T08:17:15Z
2022-10-06T06:18:24Z,42.805,6.029,13.3078,4.60104,2470.637,2022-10-06T08:20:18Z
2022-10-06T06:21:27Z,42.805,6.029,13.3069,4.60102,2470.646,2022-10-06T08:23:21Z
2022-10-06T06:24:30Z,42.805,6.029,13.3071,4.60097,2470.67,2022-10-06T08:26:25Z
2022-10-06T06:27:33Z,42.805,6.029,13.3072,4.60112,2470.684,2022-10-06T08:29:28Z
2022-10-06T06:30:36Z,42.805,6.029,13.3082,4.60109,2470.646,2022-10-06T08:32:31Z
2022-10-06T06:33:40Z,42.805,6.029,13.3107,4.60121,2470.684,2022-10-06T08:35:34Z
2022-10-06T06:36:43Z,42.805,6.029,13.3115,4.60088,2470.684,2022-10-06T08:38:37Z
2022-10-06T06:39:46Z,42.805,6.029,13.3093,4.60117,2470.624,2022-10-06T08:41:40Z
2022-10-06T06:42:49Z,42.805,6.029,13.3070,4.60115,2470.6,2022-10-06T08:44:43Z
2022-10-06T06:45:52Z,42.805,6.029,13.3081,4.60135,2470.661,2022-10-06T08:47:46Z
2022-10-06T06:48:55Z,42.805,6.029,13.3064,4.60127,2470.661,2022-10-06T08:50:49Z
2022-10-06T06:51:58Z,42.805,6.029,13.3046,4.60115,2470.624,2022-10-06T08:53:53Z
2022-10-06T06:55:01Z,42.805,6.029,13.3080,4.60133,2470.661,2022-10-06T08:56:56Z
2022-10-06T06:58:05Z,42.805,6.029,13.3084,4.60100,2470.637,2022-10-06T08:59:59Z
2022-10-06T07:01:08Z,42.805,6.029,13.3060,4.60097,2470.661,2022-10-06T09:03:02Z
2022-10-06T07:04:11Z,42.805,6.029,13.3043,4.60097,2470.624,2022-10-06T09:06:05Z
2022-10-06T07:07:14Z,42.805,6.029,13.3087,4.60117,2470.661,2022-10-06T09:09:08Z
2022-10-06T07:10:17Z,42.805,6.029,13.3062,4.60088,2470.624,2022-10-06T09:12:11Z
2022-10-06T07:13:20Z,42.805,6.029,13.3042,4.60106,2470.637,2022-10-06T09:15:14Z
2022-10-06T07:16:23Z,42.805,6.029,13.3050,4.60099,2470.637,2022-10-06T09:18:17Z
2022-10-06T07:19:26Z,42.805,6.029,13.3074,4.60084,2470.6,2022-10-06T09:21:21Z
2022-10-06T07:22:29Z,42.805,6.029,13.3063,4.60085,2470.624,2022-10-06T09:24:24Z
2022-10-06T07:25:33Z,42.805,6.029,13.3062,4.60098,2470.614,2022-10-06T09:27:27Z
2022-10-06T07:28:36Z,42.805,6.029,13.3039,4.60097,2470.6,2022-10-06T09:30:30Z
2022-10-06T07:31:39Z,42.805,6.029,13.3046,4.60078,2470.674,2022-10-06T09:33:33Z
2022-10-06T07:34:42Z,42.805,6.029,13.3050,4.60074,2470.646,2022-10-06T09:36:36Z
2022-10-06T07:37:45Z,42.805,6.029,13.3063,4.60081,2470.624,2022-10-06T09:39:39Z
2022-10-06T07:40:48Z,42.805,6.029,13.3055,4.60135,2470.624,2022-10-06T09:42:42Z
2022-10-06T07:43:51Z,42.805,6.029,13.3048,4.60099,2470.637,2022-10-06T09:45:46Z
2022-10-06T07:46:54Z,42.805,6.029,13.3050,4.60095,2470.637,2022-10-06T09:48:49Z
2022-10-06T07:49:57Z,42.805,6.029,13.3049,4.60107,2470.624,2022-10-06T09:51:52Z
2022-10-06T07:53:01Z,42.805,6.029,13.3053,4.60125,2470.6,2022-10-06T09:54:55Z
2022-10-06T07:56:04Z,42.805,6.029,13.3074,4.60104,2470.614,2022-10-06T09:57:58Z
2022-10-06T07:59:07Z,42.805,6.029,13.3079,4.60098,2470.577,2022-10-06T10:01:01Z
2022-10-06T08:02:10Z,42.805,6.029,13.3044,4.60105,2470.6,2022-10-06T10:04:04Z
2022-10-06T08:05:13Z,42.805,6.029,13.3098,4.60073,2470.6,2022-10-06T10:07:07Z
2022-10-06T08:08:16Z,42.805,6.029,13.3063,4.60076,2470.637,2022-10-06T10:10:10Z
2022-10-06T08:11:19Z,42.805,6.029,13.3046,4.60074,2470.624,2022-10-06T10:13:14Z
2022-10-06T08:14:22Z,42.805,6.029,13.3039,4.60089,2470.637,2022-10-06T10:16:17Z
2022-10-06T08:17:26Z,42.805,6.029,13.3053,4.60099,2470.637,2022-10-06T10:19:20Z
2022-10-06T08:20:29Z,42.805,6.029,13.3048,4.60077,2470.637,2022-10-06T10:22:23Z
2022-10-06T08:23:32Z,42.805,6.029,13.3061,4.60074,2470.6,2022-10-06T10:25:26Z
2022-10-06T08:26:35Z,42.805,6.029,13.3035,4.60082,2470.6,2022-10-06T10:28:29Z
2022-10-06T08:29:38Z,42.805,6.029,13.3041,4.60084,2470.637,2022-10-06T10:31:32Z
2022-10-06T08:32:41Z,42.805,6.029,13.3047,4.60089,2470.553,2022-10-06T10:34:35Z
2022-10-06T08:35:44Z,42.805,6.029,13.3043,4.60103,2470.614,2022-10-06T10:37:39Z
2022-10-06T08:38:47Z,42.805,6.029,13.3065,4.60097,2470.6,2022-10-06T10:40:42Z
2022-10-06T08:41:51Z,42.805,6.029,13.3055,4.60095,2470.577,2022-10-06T10:43:45Z
2022-10-06T08:44:54Z,42.805,6.029,13.3067,4.60095,2470.577,2022-10-06T10:46:48Z
2022-10-06T08:47:57Z,42.805,6.029,13.3060,4.60122,2470.577,2022-10-06T10:49:51Z
2022-10-06T08:51:00Z,42.805,6.029,13.3085,4.60117,2470.637,2022-10-06T10:52:54Z
2022-10-06T08:54:03Z,42.805,6.029,13.3044,4.60104,2470.614,2022-10-06T10:55:57Z
2022-10-06T08:57:06Z,42.805,6.029,13.3034,4.60099,2470.6,2022-10-06T10:59:00Z
2022-10-06T09:00:09Z,42.805,6.029,13.3063,4.60087,2470.614,2022-10-06T11:02:04Z
2022-10-06T09:03:12Z,42.805,6.029,13.3051,4.60086,2470.553,2022-10-06T11:05:07Z
2022-10-06T09:06:16Z,42.805,6.029,13.3039,4.60092,2470.567,2022-10-06T11:08:10Z
2022-10-06T09:09:19Z,42.805,6.029,13.3043,4.60108,2470.591,2022-10-06T11:11:13Z
2022-10-06T09:12:22Z,42.805,6.029,13.3085,4.60088,2470.577,2022-10-06T11:14:16Z
2022-10-06T09:15:25Z,42.805,6.029,13.3077,4.60084,2470.6,2022-10-06T11:17:19Z
2022-10-06T09:18:28Z,42.805,6.029,13.3078,4.60092,2470.591,2022-10-06T11:20:22Z
2022-10-06T09:21:31Z,42.805,6.029,13.3051,4.60116,2470.6,2022-10-06T11:23:25Z
2022-10-06T09:24:34Z,42.805,6.029,13.3043,4.60079,2470.591,2022-10-06T11:26:29Z
2022-10-06T09:27:37Z,42.805,6.029,13.3056,4.60072,2470.567,2022-10-06T11:29:32Z
2022-10-06T09:30:41Z,42.805,6.029,13.3051,4.60086,2470.567,2022-10-06T11:32:35Z
2022-10-06T09:33:44Z,42.805,6.029,13.3099,4.60086,2470.567,2022-10-06T11:35:38Z
2022-10-06T09:36:47Z,42.805,6.029,13.3041,4.60102,2470.577,2022-10-06T11:38:41Z
2022-10-06T09:39:50Z,42.805,6.029,13.3054,4.60092,2470.553,2022-10-06T11:41:44Z
2022-10-06T09:42:53Z,42.805,6.029,13.3061,4.60087,2470.591,2022-10-06T11:44:47Z
2022-10-06T09:45:56Z,42.805,6.029,13.3047,4.60087,2470.577,2022-10-06T11:47:50Z
2022-10-06T09:48:59Z,42.805,6.029,13.3085,4.60088,2470.553,2022-10-06T11:50:54Z
2022-10-06T09:52:02Z,42.805,6.029,13.3060,4.60078,2470.53,2022-10-06T11:53:57Z
2022-10-06T09:55:05Z,42.805,6.029,13.3046,4.60082,2470.553,2022-10-06T11:57:00Z
2022-10-06T09:58:09Z,42.805,6.029,13.3046,4.60102,2470.567,2022-10-06T12:00:03Z
2022-10-06T10:01:12Z,42.805,6.029,13.3057,4.60086,2470.591,2022-10-06T12:03:06Z
2022-10-06T10:04:15Z,42.805,6.029,13.3049,4.60076,2470.577,2022-10-06T12:06:09Z
2022-10-06T10:07:18Z,42.805,6.029,13.3049,4.60084,2470.553,2022-10-06T12:09:12Z
2022-10-06T10:10:21Z,42.805,6.029,13.3063,4.60088,2470.53,2022-10-06T12:12:15Z
2022-10-06T10:13:24Z,42.805,6.029,13.3056,4.60096,2470.553,2022-10-06T12:15:18Z
2022-10-06T10:16:27Z,42.805,6.029,13.3076,4.60098,2470.567,2022-10-06T12:18:22Z
2022-10-06T10:19:30Z,42.805,6.029,13.3054,4.60097,2470.567,2022-10-06T12:21:25Z
2022-10-06T10:22:34Z,42.805,6.029,13.3069,4.60089,2470.577,2022-10-06T12:24:28Z
2022-10-06T10:25:37Z,42.805,6.029,13.3052,4.60093,2470.553,2022-10-06T12:27:31Z
2022-10-06T10:28:40Z,42.805,6.029,13.3091,4.60087,2470.507,2022-10-06T12:30:34Z
2022-10-06T10:31:43Z,42.805,6.029,13.3063,4.60086,2470.553,2022-10-06T12:33:37Z
2022-10-06T10:34:46Z,42.805,6.029,13.3063,4.60092,2470.567,2022-10-06T12:36:40Z
2022-10-06T10:37:49Z,42.805,6.029,13.3067,4.60113,2470.567,2022-10-06T12:39:43Z
2022-10-06T10:40:52Z,42.805,6.029,13.3071,4.60104,2470.567,2022-10-06T12:42:47Z
2022-10-06T10:43:55Z,42.805,6.029,13.3093,4.60097,2470.577,2022-10-06T12:45:50Z
2022-10-06T10:46:59Z,42.805,6.029,13.3051,4.60084,2470.567,2022-10-06T12:48:53Z
2022-10-06T10:50:02Z,42.805,6.029,13.3051,4.60095,2470.567,2022-10-06T12:51:56Z
2022-10-06T10:53:05Z,42.805,6.029,13.3048,4.60091,2470.553,2022-10-06T12:54:59Z
2022-10-06T10:56:08Z,42.805,6.029,13.3055,4.60102,2470.553,2022-10-06T12:58:02Z
2022-10-06T10:59:11Z,42.805,6.029,13.3080,4.60086,2470.53,2022-10-06T13:01:05Z
2022-10-06T11:02:14Z,42.805,6.029,13.3069,4.60082,2470.544,2022-10-06T13:04:08Z
2022-10-06T11:05:17Z,42.805,6.029,13.3070,4.60105,2470.544,2022-10-06T13:07:12Z
2022-10-06T11:08:20Z,42.805,6.029,13.3068,4.60114,2470.544,2022-10-06T13:10:15Z
2022-10-06T11:11:23Z,42.805,6.029,13.3072,4.60097,2470.53,2022-10-06T13:13:18Z
2022-10-06T11:14:27Z,42.805,6.029,13.3068,4.60119,2470.591,2022-10-06T13:16:21Z
2022-10-06T11:17:30Z,42.805,6.029,13.3054,4.60108,2470.567,2022-10-06T13:19:24Z
2022-10-06T11:20:33Z,42.805,6.029,13.3038,4.60092,2470.553,2022-10-06T13:22:27Z
2022-10-06T11:23:36Z,42.805,6.029,13.3061,4.60101,2470.577,2022-10-06T13:25:30Z
2022-10-06T11:26:39Z,42.805,6.029,13.3063,4.60092,2470.591,2022-10-06T13:28:33Z
2022-10-06T11:29:42Z,42.805,6.029,13.3062,4.60091,2470.567,2022-10-06T13:31:37Z
2022-10-06T11:32:45Z,42.805,6.029,13.3078,4.60094,2470.577,2022-10-06T13:34:40Z
2022-10-06T11:35:48Z,42.805,6.029,13.3076,4.60106,2470.577,2022-10-06T13:37:43Z
2022-10-06T11:38:52Z,42.805,6.029,13.3076,4.60104,2470.553,2022-10-06T13:40:46Z
2022-10-06T11:41:55Z,42.805,6.029,13.3082,4.60101,2470.567,2022-10-06T13:43:49Z
2022-10-06T11:44:58Z,42.805,6.029,13.3061,4.60096,2470.553,2022-10-06T13:46:52Z
2022-10-06T11:48:01Z,42.805,6.029,13.3085,4.60087,2470.591,2022-10-06T13:49:55Z
2022-10-06T11:51:04Z,42.805,6.029,13.3069,4.60087,2470.553,2022-10-06T13:52:58Z
2022-10-06T11:54:07Z,42.805,6.029,13.3073,4.60093,2470.577,2022-10-06T13:56:02Z
2022-10-06T11:57:10Z,42.805,6.029,13.3081,4.60087,2470.614,2022-10-06T13:59:05Z
2022-10-06T12:00:13Z,42.805,6.029,13.3073,4.60086,2470.567,2022-10-06T14:02:08Z
2022-10-06T12:03:17Z,42.805,6.029,13.3059,4.60084,2470.577,2022-10-06T14:05:11Z
2022-10-06T12:06:20Z,42.805,6.029,13.3070,4.60086,2470.591,2022-10-06T14:08:14Z
2022-10-06T12:09:23Z,42.805,6.029,13.3075,4.60092,2470.52,2022-10-06T14:11:17Z
2022-10-06T12:12:26Z,42.805,6.029,13.3084,4.60081,2470.544,2022-10-06T14:14:20Z
2022-10-06T12:15:29Z,42.805,6.029,13.3060,4.60081,2470.591,2022-10-06T14:17:23Z
2022-10-06T12:18:32Z,42.805,6.029,13.3067,4.60089,2470.6,2022-10-06T14:20:26Z
2022-10-06T12:21:35Z,42.805,6.029,13.3058,4.60103,2470.591,2022-10-06T14:23:30Z
2022-10-06T12:24:38Z,42.805,6.029,13.3066,4.60087,2470.6,2022-10-06T14:26:33Z
2022-10-06T12:27:42Z,42.805,6.029,13.3065,4.60084,2470.553,2022-10-06T14:29:36Z
2022-10-06T12:30:45Z,42.805,6.029,13.3068,4.60087,2470.577,2022-10-06T14:32:39Z
2022-10-06T12:33:48Z,42.805,6.029,13.3091,4.60092,2470.614,2022-10-06T14:35:42Z
2022-10-06T12:36:51Z,42.805,6.029,13.3072,4.60106,2470.591,2022-10-06T14:38:45Z
2022-10-06T12:39:54Z,42.805,6.029,13.3058,4.60096,2470.577,2022-10-06T14:41:48Z
2022-10-06T12:42:57Z,42.805,6.029,13.3073,4.60087,2470.6,2022-10-06T14:44:51Z
2022-10-06T12:46:00Z,42.805,6.029,13.3070,4.60092,2470.6,2022-10-06T14:47:55Z
2022-10-06T12:49:03Z,42.805,6.029,13.3084,4.60093,2470.6,2022-10-06T14:50:58Z
2022-10-06T12:52:06Z,42.805,6.029,13.3067,4.60093,2470.614,2022-10-06T14:54:01Z
2022-10-06T12:55:10Z,42.805,6.029,13.3071,4.60105,2470.577,2022-10-06T14:57:04Z
2022-10-06T12:58:13Z,42.805,6.029,13.3079,4.60094,2470.577,2022-10-06T15:00:07Z
2022-10-06T13:01:16Z,42.805,6.029,13.3062,4.60091,2470.6,2022-10-06T15:03:10Z
2022-10-06T13:04:19Z,42.805,6.029,13.3070,4.60095,2470.614,2022-10-06T15:06:13Z
2022-10-06T13:07:22Z,42.805,6.029,13.3075,4.60092,2470.651,2022-10-06T15:09:16Z
2022-10-06T13:10:25Z,42.805,6.029,13.3079,4.60092,2470.577,2022-10-06T15:12:20Z
2022-10-06T13:13:28Z,42.805,6.029,13.3063,4.60097,2470.591,2022-10-06T15:15:23Z
2022-10-06T13:16:31Z,42.805,6.029,13.3071,4.60092,2470.637,2022-10-06T15:18:26Z
2022-10-06T13:19:35Z,42.805,6.029,13.3079,4.60079,2470.577,2022-10-06T15:21:29Z
2022-10-06T13:22:38Z,42.805,6.029,13.3052,4.60128,2470.6,2022-10-06T15:24:32Z
2022-10-06T13:25:41Z,42.805,6.029,13.3060,4.60089,2470.624,2022-10-06T15:27:35Z
2022-10-06T13:28:44Z,42.805,6.029,13.3080,4.60099,2470.637,2022-10-06T15:30:38Z
2022-10-06T13:31:47Z,42.805,6.029,13.3091,4.60088,2470.624,2022-10-06T15:33:41Z
2022-10-06T13:34:50Z,42.805,6.029,13.3049,4.60093,2470.637,2022-10-06T15:36:45Z
2022-10-06T13:37:53Z,42.805,6.029,13.3066,4.60085,2470.661,2022-10-06T15:39:48Z
2022-10-06T13:40:56Z,42.805,6.029,13.3060,4.60092,2470.6,2022-10-06T15:42:51Z
2022-10-06T13:44:00Z,42.805,6.029,13.3059,4.60079,2470.661,2022-10-06T15:45:54Z
2022-10-06T13:47:03Z,42.805,6.029,13.3063,4.60087,2470.624,2022-10-06T15:48:57Z
2022-10-06T13:50:06Z,42.805,6.029,13.3069,4.60084,2470.637,2022-10-06T15:52:00Z
2022-10-06T13:53:09Z,42.805,6.029,13.3061,4.60074,2470.6,2022-10-06T15:55:03Z
2022-10-06T13:56:12Z,42.805,6.029,13.3051,4.60077,2470.624,2022-10-06T15:58:06Z
2022-10-06T13:59:15Z,42.805,6.029,13.3059,4.60081,2470.661,2022-10-06T16:01:09Z
2022-10-06T14:02:18Z,42.805,6.029,13.3073,4.60092,2470.661,2022-10-06T16:04:13Z
2022-10-06T14:05:21Z,42.805,6.029,13.3045,4.60135,2470.661,2022-10-06T16:07:16Z
2022-10-06T14:08:25Z,42.805,6.029,13.3070,4.60097,2470.646,2022-10-06T16:10:19Z
2022-10-06T14:11:28Z,42.805,6.029,13.3065,4.60089,2470.646,2022-10-06T16:13:22Z
2022-10-06T14:14:31Z,42.805,6.029,13.3074,4.60092,2470.661,2022-10-06T16:16:25Z
2022-10-06T14:17:34Z,42.805,6.029,13.3091,4.60112,2470.67,2022-10-06T16:19:28Z
2022-10-06T14:20:37Z,42.805,6.029,13.3077,4.60097,2470.646,2022-10-06T16:22:31Z
2022-10-06T14:23:40Z,42.805,6.029,13.3082,4.60089,2470.661,2022-10-06T16:25:34Z
2022-10-06T14:26:43Z,42.805,6.029,13.3071,4.60086,2470.67,2022-10-06T16:28:38Z
2022-10-06T14:29:46Z,42.805,6.029,13.3094,4.60086,2470.646,2022-10-06T16:31:41Z
2022-10-06T14:32:49Z,42.805,6.029,13.3099,4.60095,2470.67,2022-10-06T16:34:44Z
2022-10-06T14:35:53Z,42.805,6.029,13.3091,4.60096,2470.707,2022-10-06T16:37:47Z
2022-10-06T14:38:56Z,42.805,6.029,13.3107,4.60104,2470.646,2022-10-06T16:40:50Z
2022-10-06T14:41:59Z,42.805,6.029,13.3082,4.60099,2470.707,2022-10-06T16:43:53Z
2022-10-06T14:45:02Z,42.805,6.029,13.3061,4.60101,2470.73,2022-10-06T16:46:56Z
2022-10-06T14:48:05Z,42.805,6.029,13.3096,4.60110,2470.707,2022-10-06T16:49:59Z
2022-10-06T14:51:08Z,42.805,6.029,13.3091,4.60097,2470.67,2022-10-06T16:53:03Z
2022-10-06T14:54:11Z,42.805,6.029,13.3091,4.60097,2470.707,2022-10-06T16:56:06Z
2022-10-06T14:57:14Z,42.805,6.029,13.3079,4.60086,2470.73,2022-10-06T16:59:09Z
2022-10-06T15:00:18Z,42.805,6.029,13.3098,4.60080,2470.693,2022-10-06T17:02:12Z
2022-10-06T15:03:21Z,42.805,6.029,13.3080,4.60097,2470.717,2022-10-06T17:05:15Z